This is the latest recevied weather packets stored in our database for station/object DG6YGE-6. If no packets are shown the sender has not sent any weather packets the latest 10 day(s).
| Time | Temp. | Humidity | Pressure | Rain* | Wind** | Luminosity | Snow |
|---|---|---|---|---|---|---|---|
| 1777777752 | 12.22° C | 92% | 1011.5 hPa | 0 mm | - | 0 W/m² | - |
| 1777777152 | 12.22° C | 91% | 1011.6 hPa | 0 mm | - | 0 W/m² | - |
| 1777776552 | 12.78° C | 92% | 1011.7 hPa | 0 mm | - | 0 W/m² | - |
| 1777775952 | 12.22° C | 91% | 1011.8 hPa | 0 mm | - | 0 W/m² | - |
| 1777775352 | 12.78° C | 92% | 1011.9 hPa | 0 mm | - | 0 W/m² | - |
| 1777774752 | 12.78° C | 91% | 1011.9 hPa | 0 mm | - | 0 W/m² | - |
| 1777774152 | 12.78° C | 91% | 1012.1 hPa | 0 mm | - | 0 W/m² | - |
| 1777773553 | 13.33° C | 92% | 1012.1 hPa | 0 mm | - | 0 W/m² | - |
| 1777772952 | 12.78° C | 90% | 1012.3 hPa | 0 mm | - | 0 W/m² | - |
| 1777772352 | 13.33° C | 90% | 1012.4 hPa | 0 mm | - | 0 W/m² | - |
| 1777771752 | 13.33° C | 90% | 1012.2 hPa | 0 mm | - | 0 W/m² | - |
| 1777771152 | 13.89° C | 90% | 1012.3 hPa | 0.25 mm | - | 0 W/m² | - |
| 1777770552 | 13.89° C | 90% | 1012.3 hPa | 0.25 mm | - | 0 W/m² | - |
| 1777769953 | 14.44° C | 90% | 1012.4 hPa | 0.25 mm | - | 0 W/m² | - |
| 1777769352 | 14.44° C | 90% | 1012.5 hPa | 0.25 mm | - | 0 W/m² | - |
| 1777768752 | 14.44° C | 90% | 1012.6 hPa | 0.25 mm | - | 0 W/m² | - |
| 1777768152 | 14.44° C | 89% | 1012.6 hPa | 0.25 mm | - | 0 W/m² | - |
| 1777767552 | 14.44° C | 89% | 1012.8 hPa | 0 mm | - | 0 W/m² | - |
| 1777766952 | 14.44° C | 88% | 1013 hPa | 0 mm | - | 0 W/m² | - |
| 1777766352 | 15° C | 87% | 1013.1 hPa | 0 mm | - | 0 W/m² | - |
| 1777765752 | 15° C | 87% | 1013 hPa | 0 mm | - | 0 W/m² | - |
| 1777765152 | 15.56° C | 87% | 1013 hPa | 0.51 mm | - | 0 W/m² | - |
| 1777764552 | 15.56° C | 87% | 1013.2 hPa | 0.51 mm | - | 0 W/m² | - |
| 1777763952 | 16.11° C | 86% | 1013.2 hPa | 0.51 mm | - | 0 W/m² | - |
| 1777763352 | 16.11° C | 86% | 1013.3 hPa | 0.51 mm | - | 0 W/m² | - |
* Rain latest hour (hover to see other rain measurements)
** Current wind speed in m/s (hover to see current wind gust speed)